Buffalo, MN

4:24 PM CDT on July 22, 2017 (GMT -0500)
Buffalo

Weather History for KCFE - March, 2014

Change the Weather History Date:

Friday, March 14, 2014

  Actual Average (KMIC) Record (KMIC)
Temperature  
Mean Temperature 33 °F -  
Max Temperature 41 °F 35 °F 72 °F (2012)
Min Temperature 25 °F 19 °F -5 °F (1993)
Degree Days  
Heating Degree Days 32    
Moisture  
Dew Point 28 °F    
Average Humidity 72    
Maximum Humidity 83    
Minimum Humidity 58    
Precipitation  
Precipitation 0.00 in - - ()
Sea Level Pressure  
Sea Level Pressure 29.70 in    
Wind  
Wind Speed 11 mph (West)    
Max Wind Speed 29 mph    
Max Gust Speed 40 mph    
Visibility 10 miles    
Events      
Averages and records for this station are not official NWS values.
T = Trace of Precipitation, MM = Missing Value Source: NWS Daily Summary

Daily Weather History Graph

Daily Weather History Graph

Search for Another Location

Airport or City:

Trip Planner

Search our weather history database for the weather conditions in past years. The results will help you decide how hot, cold, wet, or windy it might be!

Date:

Astronomy

Mar. 14, 2014 Rise Set
Actual Time 7:29 AM CDT 7:20 PM CDT
Civil Twilight 7:00 AM CDT 7:49 PM CDT
Nautical Twilight 6:26 AM CDT 8:23 PM CDT
Astronomical Twilight 5:51 AM CDT 8:58 PM CDT
Moon 5:39 PM CDT (3/14) 6:14 AM CDT (3/14)
Length of Visible Light 12h 49m
Length of Day
11h 50m
Waxing Gibbous, 96% of the Moon is Illuminated
Mar 14
Waxing Gibbous
Mar 16
Full
Mar 23
Last Quarter
Mar 30
New
Apr 7
First Quarter

Hourly Weather History & Observations

Time (CDT) Temp. Windchill Dew Point Humidity Pressure Visibility Wind Dir Wind Speed Gust Speed Precip Events Conditions
12:15 AM 39.4 °F 36.1 °F 34.2 °F 82% 29.52 in 10.0 mi WSW 4.6 mph - N/A   Clear
12:36 AM 39.0 °F 35.7 °F 33.4 °F 80% 29.51 in 10.0 mi WSW 4.6 mph - N/A   Clear
12:56 AM 38.5 °F 35.0 °F 32.9 °F 80% 29.51 in 10.0 mi WSW 4.6 mph - N/A   Clear
1:15 AM 39.7 °F 35.6 °F 33.3 °F 78% 29.51 in 10.0 mi West 5.8 mph - N/A   Clear
1:36 AM 41.0 °F 38.0 °F 33.3 °F 74% 29.51 in 10.0 mi West 4.6 mph - N/A   Clear
1:56 AM 40.6 °F 36.7 °F 33.1 °F 74% 29.52 in 10.0 mi West 5.8 mph - N/A   Clear
2:15 AM 40.1 °F 34.1 °F 32.9 °F 75% 29.52 in 10.0 mi West 9.2 mph - N/A   Clear
2:36 AM 39.6 °F 34.0 °F 32.4 °F 75% 29.52 in 10.0 mi West 8.1 mph - N/A   Clear
2:56 AM 39.2 °F 32.0 °F 32.0 °F 75% 29.53 in 10.0 mi West 11.5 mph - N/A   Clear
3:15 AM 38.8 °F 33.2 °F 32.0 °F 76% 29.53 in 10.0 mi West 8.1 mph - N/A   Clear
3:36 AM 38.3 °F 31.4 °F 32.0 °F 78% 29.53 in 10.0 mi West 10.4 mph - N/A   Clear
3:56 AM 37.6 °F 30.5 °F 31.8 °F 80% 29.53 in 10.0 mi West 10.4 mph - N/A   Clear
4:15 AM 37.4 °F 30.3 °F 31.1 °F 78% 29.53 in 10.0 mi West 10.4 mph 16.1 mph N/A   Clear
4:36 AM 36.7 °F 29.4 °F 30.7 °F 79% 29.54 in 10.0 mi West 10.4 mph 16.1 mph N/A   Clear
4:56 AM 36.1 °F 29.3 °F 30.4 °F 80% 29.55 in 10.0 mi West 9.2 mph - N/A   Clear
5:15 AM 35.8 °F 28.8 °F 29.8 °F 79% 29.55 in 10.0 mi West 9.2 mph - N/A   Scattered Clouds
5:36 AM 35.8 °F 28.3 °F 29.8 °F 79% 29.56 in 10.0 mi West 10.4 mph 18.4 mph N/A   Mostly Cloudy
5:55 AM 35.6 °F 27.5 °F 30.0 °F 80% 29.56 in 10.0 mi West 11.5 mph 18.4 mph N/A   Overcast
6:15 AM 35.6 °F 26.6 °F 30.0 °F 80% 29.57 in 10.0 mi West 13.8 mph 18.4 mph N/A   Mostly Cloudy
6:36 AM 35.1 °F 25.9 °F 30.0 °F 82% 29.59 in 10.0 mi West 13.8 mph 19.6 mph N/A   Scattered Clouds
6:55 AM 35.2 °F 26.6 °F 30.2 °F 82% 29.59 in 10.0 mi West 12.7 mph - N/A   Mostly Cloudy
7:15 AM 35.1 °F 26.9 °F 30.2 °F 82% 29.60 in 10.0 mi West 11.5 mph - N/A   Overcast
7:36 AM 35.1 °F 26.4 °F 30.2 °F 82% 29.61 in 10.0 mi West 12.7 mph 18.4 mph N/A   Mostly Cloudy
7:55 AM 35.1 °F 26.4 °F 30.4 °F 83% 29.61 in 10.0 mi West 12.7 mph 19.6 mph N/A   Overcast
8:15 AM 35.6 °F 27.1 °F 30.6 °F 82% 29.61 in 10.0 mi West 12.7 mph 19.6 mph N/A   Overcast
8:36 AM 35.6 °F 27.5 °F 30.9 °F 83% 29.61 in 10.0 mi West 11.5 mph 16.1 mph N/A   Overcast
8:55 AM 35.6 °F 27.1 °F 30.9 °F 83% 29.62 in 10.0 mi West 12.7 mph 19.6 mph N/A   Overcast
9:15 AM 35.8 °F 26.5 °F 31.1 °F 83% 29.62 in 10.0 mi West 15.0 mph 21.9 mph N/A   Overcast
9:36 AM 36.1 °F 26.9 °F 31.5 °F 83% 29.63 in 10.0 mi West 15.0 mph 21.9 mph N/A   Overcast
9:55 AM 36.7 °F 28.4 °F 31.6 °F 82% 29.63 in 10.0 mi West 12.7 mph 18.4 mph N/A   Overcast
10:15 AM 37.4 °F 28.9 °F 31.8 °F 80% 29.64 in 10.0 mi West 13.8 mph 18.4 mph N/A   Overcast
10:36 AM 38.3 °F 30.1 °F 32.0 °F 78% 29.64 in 10.0 mi West 13.8 mph 23.0 mph N/A   Overcast
10:55 AM 38.5 °F 28.9 °F 32.0 °F 78% 29.64 in 10.0 mi West 18.4 mph 24.2 mph N/A   Overcast
11:15 AM 38.7 °F 29.8 °F 31.8 °F 76% 29.65 in 10.0 mi West 16.1 mph 27.6 mph N/A   Overcast
11:36 AM 39.2 °F 30.5 °F 31.8 °F 75% 29.67 in 10.0 mi West 16.1 mph 21.9 mph N/A   Overcast
11:55 AM 39.4 °F 30.7 °F 32.0 °F 75% 29.67 in 10.0 mi West 16.1 mph 23.0 mph N/A   Overcast
12:15 PM 39.2 °F 30.5 °F 31.8 °F 75% 29.68 in 10.0 mi West 16.1 mph 24.2 mph N/A   Overcast
12:36 PM 39.2 °F 31.6 °F 32.0 °F 75% 29.69 in 10.0 mi West 12.7 mph 23.0 mph N/A   Overcast
12:55 PM 39.4 °F 31.1 °F 32.2 °F 75% 29.69 in 10.0 mi West 15.0 mph 23.0 mph N/A   Overcast
1:16 PM 39.2 °F 29.8 °F 31.6 °F 74% 29.70 in 10.0 mi West 18.4 mph 25.3 mph N/A   Overcast
1:36 PM 40.5 °F 32.8 °F 32.0 °F 72% 29.70 in 10.0 mi West 13.8 mph 21.9 mph N/A   Mostly Cloudy
1:55 PM 39.7 °F 31.5 °F 30.6 °F 70% 29.71 in 10.0 mi WNW 15.0 mph 27.6 mph N/A   Scattered Clouds
2:16 PM 40.8 °F 33.3 °F 30.4 °F 66% 29.70 in 10.0 mi West 13.8 mph 20.7 mph N/A   Scattered Clouds
2:36 PM 41.4 °F 32.1 °F 29.3 °F 62% 29.71 in 10.0 mi West 20.7 mph 28.8 mph N/A   Scattered Clouds
2:55 PM 41.0 °F 30.5 °F 28.0 °F 60% 29.72 in 10.0 mi West 26.5 mph 34.5 mph N/A   Mostly Cloudy
3:16 PM 39.9 °F 29.7 °F 27.9 °F 62% 29.72 in 10.0 mi West 23.0 mph 32.2 mph N/A   Mostly Cloudy
3:36 PM 39.6 °F 28.1 °F 28.4 °F 64% 29.74 in 10.0 mi West 28.8 mph 35.7 mph N/A   Overcast
3:55 PM 37.6 °F 25.9 °F 26.8 °F 65% 29.74 in 10.0 mi West 26.5 mph 40.3 mph N/A   Scattered Clouds
4:16 PM 37.6 °F 27.4 °F 26.8 °F 65% 29.75 in 10.0 mi West 19.6 mph 29.9 mph N/A   Scattered Clouds
4:36 PM 37.4 °F 28.5 °F 25.9 °F 63% 29.76 in 10.0 mi West 15.0 mph 26.5 mph N/A   Clear
4:55 PM 37.4 °F 27.5 °F 25.2 °F 61% 29.77 in 10.0 mi WNW 18.4 mph 21.9 mph N/A   Clear
5:16 PM 36.5 °F 27.8 °F 23.4 °F 59% 29.78 in 10.0 mi WNW 13.8 mph 23.0 mph N/A   Clear
5:36 PM 35.8 °F 26.1 °F 23.2 °F 60% 29.79 in 10.0 mi WNW 16.1 mph 24.2 mph N/A   Clear
5:55 PM 35.4 °F 26.0 °F 23.9 °F 63% 29.80 in 10.0 mi West 15.0 mph 19.6 mph N/A   Clear
6:16 PM 34.7 °F 24.0 °F 21.4 °F 58% 29.81 in 10.0 mi WNW 18.4 mph 25.3 mph N/A   Clear
6:36 PM 34.0 °F 26.0 °F 21.2 °F 60% 29.82 in 10.0 mi West 10.4 mph 17.3 mph N/A   Clear
6:55 PM 33.8 °F 24.3 °F 21.7 °F 61% 29.84 in 10.0 mi West 13.8 mph - N/A   Clear
7:16 PM 32.5 °F 23.7 °F 19.9 °F 60% 29.85 in 10.0 mi West 11.5 mph 16.1 mph N/A   Clear
7:36 PM 32.0 °F 23.0 °F 21.0 °F 64% 29.86 in 10.0 mi West 11.5 mph 16.1 mph N/A   Clear
7:55 PM 31.3 °F 22.7 °F 20.3 °F 64% 29.87 in 10.0 mi West 10.4 mph - N/A   Clear
8:16 PM 30.7 °F 23.3 °F 20.1 °F 65% 29.89 in 10.0 mi West 8.1 mph - N/A   Clear
8:36 PM 30.2 °F 21.9 °F 19.9 °F 66% 29.90 in 10.0 mi West 9.2 mph - N/A   Clear
8:55 PM 29.8 °F 21.5 °F 20.1 °F 67% 29.91 in 10.0 mi West 9.2 mph - N/A   Clear
9:15 PM 29.3 °F 20.2 °F 19.2 °F 66% 29.92 in 10.0 mi WNW 10.4 mph - N/A   Clear
9:36 PM 28.9 °F 21.9 °F 18.5 °F 65% 29.93 in 10.0 mi WNW 6.9 mph - N/A   Clear
9:55 PM 28.4 °F 20.4 °F 18.9 °F 67% 29.94 in 10.0 mi WNW 8.1 mph - N/A   Clear
10:15 PM 28.0 °F 20.8 °F 18.5 °F 67% 29.95 in 10.0 mi WNW 6.9 mph - N/A   Clear
10:36 PM 27.5 °F 19.3 °F 16.5 °F 63% 29.96 in 10.0 mi NW 8.1 mph - N/A   Clear
10:55 PM 27.1 °F 19.7 °F 15.6 °F 62% 29.96 in 10.0 mi NW 6.9 mph - N/A   Clear
11:15 PM 26.6 °F 19.1 °F 15.1 °F 62% 29.96 in 10.0 mi NW 6.9 mph - N/A   Clear
11:36 PM 25.3 °F 16.0 °F 15.4 °F 66% 29.97 in 10.0 mi NW 9.2 mph - N/A   Clear
11:55 PM 25.3 °F 16.7 °F 15.3 °F 66% 29.97 in 10.0 mi NNW 8.1 mph - N/A   Clear